Location: Aventignan
(43.0687°N, 0.5212°E)
Time: 06:49:48
(UTC+00:00)

Daily predictions for brighter satellites

Satellite Brightness Start Highest point End
(mag) Time Altitude Azimuth Time Altitude Azimuth Time Altitude Azimuth
Cosmos 1680 Rocket 3.6 18:19:37 10° NNW 18:24:53 90° E 18:30:08 10° SSE
Abrixas rocket 3.1 18:25:24 10° W 18:28:04 35° NNW 18:30:44 10° NE
Okean 2 Rocket 4.4 18:25:21 10° SE 18:28:38 20° E 18:31:55 10° NE
NOSS 2-2 (E) 3.4 18:26:50 10° SSW 18:30:10 44° ESE 18:33:45 10° NE
Tsikada Rocket 4.2 18:25:26 10° N 18:31:36 80° W 18:37:45 10° S
Cosmos 1544 3.5 18:30:07 10° SSW 18:33:45 68° W 18:37:25 10° N
Okean-O 2.9 18:30:39 10° S 18:35:05 77° WSW 18:39:32 10° NNW
USA 116 3.6 18:32:58 10° NNE 18:36:25 56° ESE 18:40:15 10° S
Okean 2 3.4 18:32:42 10° N 18:36:54 75° E 18:41:02 10° SSE
CZ-2C R/B 2.7 18:34:25 10° SW 18:37:09 20° S 18:39:47 10° SE
NOSS 2-2 (D) 3.4 18:35:33 10° SSW 18:38:52 41° ESE 18:42:22 10° NE
Iridium 4 Rocket 3.5 18:38:19 10° S 18:43:12 88° W 18:48:36 10° N
YAOGAN 1 2.6 18:40:06 10° SSE 18:44:25 84° WSW 18:48:47 10° NNW
Cosmos 1975 3.0 18:40:44 10° S 18:44:48 81° W 18:48:55 10° N
CENTAUR R/B 4.1 18:38:20 10° NNW 18:45:05 30° NE 18:51:58 11° E
GP-B 4.0 18:43:06 10° N 18:47:26 53° W 18:51:45 10° SSW
H-2A R/B 2.0 18:43:45 10° SSE 18:48:36 58° ENE 18:53:34 10° N
SJ-11-01 4.3 18:44:32 10° SSE 18:49:11 64° ENE 18:53:51 10° N
CZ-4 R/B 2.1 18:45:39 10° S 18:49:49 60° W 18:54:00 10° NNW
Cosmos 1437 2.5 18:48:26 10° N 18:51:26 90° NW 18:54:25 10° S
DMSP B5D1-3 4.5 18:46:51 10° NNE 18:51:58 80° ESE 18:57:04 10° S
ISS -3.7 18:49:42 10° SW 18:53:01 61° SE 18:56:09 11° ENE
Cosmos 1842 3.7 18:53:23 10° NNW 18:57:14 66° W 19:01:04 10° S
ARGOS 3.2 18:56:52 10° SSE 19:02:07 60° ENE 19:07:25 10° N
Cosmos 1782 Rocket 4.1 19:00:39 10° SSW 19:05:00 63° W 19:09:26 10° N
Cosmos 1025 Rocket 3.5 19:02:25 10° N 19:06:33 40° ENE 19:10:02 14° SE
CZ-2C R/B 3.2 19:02:07 10° NNE 19:07:14 37° E 19:12:22 10° SSE
Cosmos 1707 2.7 19:06:02 10° N 19:09:50 59° E 19:13:36 10° SSE
Cosmos 2151 Rocket 4.1 19:05:48 10° SSE 19:09:54 38° E 19:14:03 10° NNE
DELTA 2 R/B (1) 4.4 19:06:09 10° W 19:11:19 40° SSW 19:15:16 16° SE
USA 186 2.1 19:13:02 28° ESE 19:14:12 41° ENE 19:17:16 10° N
Ariane Rocket 3.2 19:12:56 14° SE 19:17:06 49° ENE 19:22:00 10° N
SJ-6B 3.3 19:16:15 27° ESE 19:17:30 35° ENE 19:20:57 10° N
CZ-2C R/B 3.7 19:13:00 10° S 19:18:08 59° W 19:23:34 10° NNW
Cosmos 1844 4.3 19:13:47 10° SSE 19:18:49 33° ESE 19:23:51 10° NE
FREGAT/IRIS 3.9 19:20:39 22° NE 19:20:39 22° NE 19:22:03 10° NNE
Cosmos 2263 Rocket 3.5 19:15:32 10° SW 19:20:48 42° WNW 19:26:07 10° NNE
Cosmos 1072 Rocket 4.4 19:14:55 10° S 19:21:08 82° E 19:27:29 10° N
NOSS 2-2 (C) 3.6 19:19:57 10° SW 19:23:25 60° NW 19:27:12 10° NNE
Nadezhda 4 Rocket 4.1 19:18:13 10° N 19:24:12 53° ENE 19:29:17 14° SSE
NOSS 3-2 (A) 4.2 19:17:33 10° NNW 19:24:56 57° NE 19:30:19 23° ESE
MOS 1 4.4 19:21:25 16° SE 19:25:48 54° ENE 19:31:20 10° N
Cosmos 1844 Rocket 2.8 19:22:09 10° S 19:27:27 48° ESE 19:32:49 10° NE
Cosmos 2034 Rocket 4.0 19:21:21 10° S 19:27:35 61° E 19:33:50 10° NNE
USA 102 3.6 19:24:07 22° SE 19:28:29 69° ENE 19:29:58 29° N
Cosmos 2298 Rocket 3.9 19:24:38 10° S 19:29:54 67° ESE 19:35:12 10° NNE
Cosmos 1975 Rocket 4.3 19:26:11 10° NNW 19:30:16 41° W 19:34:19 10° SSW
SPOT 3 Rocket 4.3 19:32:57 29° E 19:34:09 33° ENE 19:38:44 10° N
Resurs 01 Rocket 2.8 19:42:54 26° ENE 19:42:54 26° ENE 19:46:09 10° N
USA 234 3.3 19:38:34 10° NE 19:44:58 54° SE 19:51:20 10° SSW
Cosmos 1867 3.9 19:40:11 10° NW 19:45:35 64° WSW 19:49:02 22° SSE
Lacrosse 5 rocket 4.1 19:43:21 10° NW 19:45:45 14° N 19:48:13 10° NNE
MetOp-A 4.0 19:42:59 26° SSE 19:46:03 71° ENE 19:51:24 10° N
Cosmos 1833 Rocket 4.4 19:47:23 10° N 19:50:55 17° NE 19:51:25 16° NE
OBJECT-B 2.2 19:52:33 29° NNE 19:52:33 29° NNE 19:54:26 10° N
IRS-1A Rocket 4.4 19:46:57 15° SSE 19:52:02 84° WSW 19:57:57 10° NNW
Meteor 1-15 Rocket 4.1 19:46:29 10° S 19:52:02 70° E 19:57:43 10° NNE
Cosmos 1626 4.3 19:55:01 10° NNE 19:56:03 16° NNE 19:56:03 16° NNE
ARIANE 5 R/B 4.4 20:01:02 19° NE 20:01:02 19° NE 20:02:54 10° NNE
Cosmos 2150 Rocket 4.2 19:54:16 10° SSW 19:59:36 75° WNW 20:05:05 10° NNE
NOSS 3-2 (C) 4.2 19:52:21 10° NNW 19:59:47 60° NE 20:03:03 38° ESE
Cosmos 1634 Rocket 4.1 19:59:03 42° ESE 20:00:15 48° E 20:06:09 10° NNE
DMSP B5D2-2 4.0 19:55:38 10° NNE 20:00:57 88° WNW 20:06:15 10° SSW
BREEZE-M TANK 2.9 19:54:49 10° WSW 20:03:44 85° NNW 20:04:37 55° ENE
Abrixas rocket 4.1 20:01:18 10° WNW 20:03:00 23° NNW 20:03:00 23° NNW
Cosmos 2285 Rocket 3.8 20:01:06 10° S 20:07:20 73° ESE 20:13:40 10° NNE
Cosmos 1125 Rocket 3.4 20:02:08 10° SSW 20:07:26 87° ESE 20:12:47 10° NNE
Okean 1 Rocket 3.0 20:08:19 70° NE 20:08:19 70° NE 20:12:29 10° NNE
CZ-2C R/B 3.5 20:13:41 10° SW 20:14:20 13° SW 20:14:20 13° SW
Cosmos 1627 Rocket 4.4 20:12:03 10° N 20:18:26 69° E 20:19:38 57° SE
Resurs 1-3 3.6 20:18:56 79° NNW 20:18:56 79° NNW 20:23:06 10° NNW
Cosmos 1092 Rocket 3.9 20:17:34 10° N 20:23:46 88° W 20:25:37 49° S
Meteor 2-13 Rocket 4.4 20:17:56 10° N 20:24:08 84° W 20:26:06 46° S
Meteor 2-5 Rocket 3.6 20:19:15 10° N 20:24:55 82° E 20:25:27 73° SE
ATLAS 2AS CENTAUR R/B 3.0 20:17:48 10° SSW 20:25:27 57° ESE 20:33:10 10° NE
Cosmos 2195 Rocket 4.3 20:19:43 10° N 20:26:00 86° E 20:27:20 58° SSE
Cosmos 1674 3.8 20:23:49 10° NNW 20:27:00 44° WNW 20:27:00 44° WNW
Cosmos 2026 Rocket 3.9 20:23:36 10° N 20:30:01 80° E 20:30:53 67° SSE
ISS -1.4 20:27:04 10° W 20:29:08 24° NW 20:29:08 24° NW
Milstar 3 Cent rocket 4.3 20:27:19 10° SSW 20:28:03 12° SSW 20:28:03 12° SSW
Cosmos 2082 Rocket 3.9 20:29:07 10° N 20:32:16 19° NE 20:32:16 19° NE
Meteor 1-22 Rocket 4.2 20:34:25 77° ENE 20:34:25 77° ENE 20:40:15 10° NNE
CENTAUR R/B 3.1 20:28:44 10° NW 20:36:56 85° NE 20:39:10 56° SE
Cosmos 1428 Rocket 4.3 20:35:23 10° N 20:41:42 89° W 20:42:07 79° S
Cosmos 2279 Rocket 4.4 20:44:35 51° NE 20:44:35 51° NE 20:49:22 10° NNE
ATLAS 3B R/B 3.4 20:37:30 10° NNW 20:43:54 39° NE 20:44:10 39° NE
COSMOS 2406 3.9 20:38:47 10° NNW 20:43:10 43° NNE 20:43:10 43° NNE
Cosmos 2142 Rocket 4.5 20:47:06 72° NE 20:47:06 72° NE 20:52:45 10° N
CZ-2C R/B 4.3 20:42:32 10° N 20:47:24 33° WNW 20:52:20 10° SW
Meteor 1-24 Rocket 3.8 20:42:07 10° NNW 20:47:08 74° NNW 20:47:08 74° NNW
USA 238 DEB 4.2 20:41:09 10° NW 20:48:16 59° WSW 20:49:58 49° SSW
USA 238 4.2 20:41:15 10° NW 20:48:23 60° WSW 20:50:02 49° SSW
Cosmos 1269 Rocket 4.5 20:43:46 10° NNW 20:48:00 57° NNW 20:48:00 57° NNW
Terra 4.3 21:02:36 14° NNE 21:02:36 14° NNE 21:03:22 10° N
Lacrosse 4 Rocket 4.3 21:06:28 10° N 21:06:37 11° N 21:06:37 11° N
Resurs 01 Rocket 3.8 21:20:29 24° WNW 21:20:29 24° WNW 21:22:48 10° NNW
Lacrosse 5 rocket 4.3 21:23:42 10° NNW 21:25:05 14° N 21:25:05 14° N
USA 234 3.8 21:24:43 29° NNE 21:27:57 53° NNW 21:34:16 10° WSW
Cosmos 1833 Rocket 4.1 21:30:00 10° NNW 21:33:07 34° NNW 21:33:07 34° NNW
ATLAS 2AS CENTAUR R/B 4.0 22:09:17 10° WSW 22:16:46 43° NW 22:24:11 10° NNE
Cosmos 2082 Rocket 4.3 22:12:15 10° NNW 22:14:06 22° NNW 22:14:06 22° NNW
ATLAS 3B R/B 4.2 22:28:06 10° NW 22:31:25 29° WNW 22:31:25 29° WNW
